Weather in Vurmankasy

Russia / Chuvash Republic     55°32′47″N   46°50′50″E
В апреле 2022 года жителям России запретили посещать сайт meteo.paraplan.net по решению Генеральной прокуратуры. Аудитория сайта уменьшилась в 10 раз. Владельцы сайта не видят смысла в поддержке погодного сервера в таких условиях. Сайт будет закрыт в октябре.
temp.,
°C
wind,
m/s
gust,
m/s
humid.,
%
clouds,
%
prec.,
mm/h
press.,
hPa
HPBL,
m
30 september, fri
fri3000:00+10n119669 0.0 101614
03:00+9ene1196100 0.0 101811
06:00+10ese229670 0.0 102069
09:00+12se238780 0.0 1021288
12:00+13se3377100 0.0 1022740
15:00+14se347595 0.0 1022767
18:00+11se4891100 0.0 1023241
21:00+9se3896100 0.0 1023214
1 october, sat
sat100:00+9se3795100 0.0 1023184
03:00+8sse369654 0.0 1022121
06:00+10se389450 0.0 1022206
09:00+11sse41089100 0.0 1022345
12:00+14s4980100 0.0 1021511
15:00+14sse41084100 0.1 1019493
18:00+14sse31089100 0.3 1018339
21:00+13sse41289100 0.3 1017390
2 october, sun
sun200:00+14sse51481100 0.1 1015513
03:00+13s51484100 0.1 1013464
06:00+13s61484100 0.1 1012527
09:00+15s61380100 0.3 1011638
12:00+17ssw61077100 0.1 1010908
15:00+18sw5106879 0.2 10101273
18:00+15sw3879100 0.0 1011232
21:00+13s2287100 0.0 101140
3 october, mon
mon300:00+12se229297 0.0 101140
03:00+14se41195100 0.1 1010347
06:00+14sse51293100 0.2 1009397
09:00+17sse51477100 0.3 1010586
12:00+20sse71553100 0.0 1010959
15:00+18s71653100 0.0 10111172
18:00+17s81653100 0.0 10121144
21:00+17sse81851100 0.0 10121163
4 october, tue
tue400:00+16s81647100 0.0 10141267
03:00+13s71560100 0.3 10151107
06:00+11s61473100 0.9 1016898
09:00+10s61374100 1.7 1018852
12:00+11sse51265100 0.3 1019880
15:00+10s51185100 0.5 1021581
18:00+10s51282100 0.0 1022526
21:00+9s41081100 0.0 1023524